Fairbanks Eiels, AK

11:01 PM AKST on December 07, 2019 (GMT -0900)
Eielson Air Force Base

Weather History for PAEI - October, 2019

Change the Weather History Date:

Wednesday, October 9, 2019

  Actual Average Record
Temperature  
Mean Temperature 37 °F -  
Max Temperature 41 °F 38 °F 64 °F (2006)
Min Temperature 33 °F 24 °F -2 °F (1961)
Degree Days  
Heating Degree Days 28    
Moisture  
Dew Point 34 °F    
Average Humidity 92    
Maximum Humidity 94    
Minimum Humidity 85    
Precipitation  
Precipitation 0.02 in - - ()
Sea Level Pressure  
Sea Level Pressure 29.98 in    
Wind  
Wind Speed 2 mph (NW)    
Max Wind Speed 6 mph    
Max Gust Speed -    
Visibility 10 miles    
Events Rain , Snow    
Averages and records for this station are not official NWS values.
T = Trace of Precipitation, MM = Missing Value Source: NWS Daily Summary

Daily Weather History Graph

Daily Weather History Graph

Search for Another Location

Airport or City:

Astronomy

Oct. 09, 2019 Rise Set
Actual Time 8:21 AM AKDT 6:47 PM AKDT
Civil Twilight 7:32 AM AKDT 7:36 PM AKDT
Nautical Twilight 6:36 AM AKDT 8:32 PM AKDT
Astronomical Twilight 5:37 AM AKDT 9:31 PM AKDT
Moon 7:10 PM AKDT (10/9) 2:12 AM AKDT (10/9)
Length of Visible Light 12h 03m
Length of Day
10h 26m
Waxing Gibbous, 86% of the Moon is Illuminated
Oct 9
Waxing Gibbous
Oct 13
Full
Oct 21
Last Quarter
Oct 27
New
Nov 4
First Quarter

Hourly Weather History & Observations

Time (AKDT) Temp. Windchill Dew Point Humidity Pressure Visibility Wind Dir Wind Speed Gust Speed Precip Events Conditions
12:13 AM 35.6 °F 31.7 °F 33.8 °F 93% 30.03 in 10.0 mi South 4.6 mph - N/A   Overcast
12:22 AM 35.6 °F 31.7 °F 33.8 °F 93% 30.02 in 10.0 mi South 4.6 mph - N/A Rain Light Rain
12:31 AM 35.6 °F 31.7 °F 33.8 °F 93% 30.02 in 10.0 mi SSE 4.6 mph - N/A   Overcast
12:50 AM 35.6 °F 30.7 °F 33.8 °F 93% 30.02 in 10.0 mi SE 5.8 mph - N/A Rain , Snow Light Rain
12:56 AM 35.2 °F 31.2 °F 32.9 °F 91% 30.02 in 10.0 mi SE 4.6 mph - 0.00 in   Overcast
1:38 AM 35.6 °F - 33.8 °F 93% 29.98 in 10.0 mi Calm Calm - N/A Rain Light Rain
1:39 AM 35.6 °F - 33.8 °F 93% 30.01 in 10.0 mi Calm Calm - N/A Rain Light Rain
1:45 AM 35.6 °F - 33.8 °F 93% 30.01 in 10.0 mi Calm Calm - N/A   Overcast
1:56 AM 35.6 °F - 33.3 °F 91% 30.01 in 10.0 mi Calm Calm - 0.00 in   Overcast
2:26 AM 35.6 °F - 33.8 °F 93% 29.98 in 10.0 mi Calm Calm - N/A   Overcast
2:41 AM 37.4 °F - 33.8 °F 87% 30.01 in 10.0 mi Calm Calm - N/A   Overcast
2:56 AM 36.0 °F - 33.3 °F 90% 30.01 in 10.0 mi Calm Calm - N/A   Overcast
3:12 AM 35.6 °F - 33.8 °F 93% 30.01 in 10.0 mi Calm Calm - N/A Rain Light Rain
3:49 AM 35.6 °F - 33.8 °F 93% 30.00 in 10.0 mi Calm Calm - N/A   Overcast
4:39 AM 35.6 °F - 33.8 °F 93% 30.00 in 10.0 mi Calm Calm - N/A Rain Light Rain
4:56 AM 35.1 °F 32.2 °F 33.4 °F 94% 29.99 in 10.0 mi North 3.5 mph - 0.00 in   Overcast
5:26 AM 35.6 °F - 33.8 °F 93% 29.98 in 10.0 mi Calm Calm - N/A   Overcast
5:29 AM 35.6 °F - 33.8 °F 93% 29.98 in 10.0 mi Calm Calm - N/A Rain Light Rain
5:39 AM 35.6 °F - 33.8 °F 93% 29.98 in 10.0 mi Calm Calm - N/A   Overcast
5:56 AM 34.9 °F - 33.1 °F 93% 29.98 in 10.0 mi Calm Calm - 0.00 in   Overcast
6:11 AM 35.6 °F - 33.8 °F 93% 29.98 in 10.0 mi Calm Calm - N/A   Overcast
6:12 AM 35.6 °F - 33.8 °F 93% 29.98 in 10.0 mi Calm Calm - N/A Rain Light Rain
6:27 AM 33.8 °F - 32.0 °F 93% 29.98 in 10.0 mi Calm Calm - N/A   Overcast
6:56 AM 34.5 °F 30.4 °F 32.7 °F 93% 29.97 in 10.0 mi NNW 4.6 mph - 0.00 in   Overcast
9:07 AM 33.8 °F - 32.0 °F 93% 29.91 in 10.0 mi Calm Calm - N/A   Light Drizzle
9:22 AM 33.8 °F 29.6 °F 32.0 °F 93% 29.94 in 10.0 mi NNW 4.6 mph - N/A   Overcast
9:47 AM 33.8 °F 28.6 °F 32.0 °F 93% 29.95 in 10.0 mi NW 5.8 mph - N/A   Overcast
9:56 AM 34.3 °F 29.2 °F 32.7 °F 94% 29.94 in 10.0 mi NW 5.8 mph - 0.00 in   Overcast
10:26 AM 35.6 °F 31.7 °F 33.8 °F 93% 29.91 in 10.0 mi NNW 4.6 mph - N/A   Overcast
10:56 AM 35.4 °F 31.5 °F 33.6 °F 93% 29.94 in 10.0 mi North 4.6 mph - N/A   Overcast
11:11 AM 35.6 °F 31.7 °F 33.8 °F 93% 29.94 in 10.0 mi North 4.6 mph - N/A   Overcast
11:41 AM 37.4 °F - 35.6 °F 93% 29.94 in 10.0 mi Calm Calm - N/A   Overcast
3:56 PM 41.5 °F 38.6 °F 37.4 °F 85% 29.96 in 10.0 mi West 4.6 mph - N/A   Overcast
4:56 PM 41.0 °F 39.0 °F 37.2 °F 86% 29.97 in 10.0 mi WSW 3.5 mph - N/A   Overcast
5:41 PM 41.0 °F - 37.4 °F 87% 29.97 in 10.0 mi Calm Calm - N/A   Overcast
5:50 PM 41.0 °F - 37.4 °F 87% 29.97 in 10.0 mi Calm Calm - N/A   Light Drizzle
5:56 PM 40.5 °F - 37.2 °F 88% 29.97 in 10.0 mi Calm Calm - 0.00 in   Light Drizzle
6:56 PM 39.0 °F - 36.9 °F 92% 29.97 in 10.0 mi Calm Calm - 0.00 in   Light Drizzle
7:30 PM 39.2 °F - 37.4 °F 93% 29.97 in 5.0 mi Calm Calm - N/A Rain Light Rain
7:56 PM 38.3 °F - 36.0 °F 91% 29.98 in 10.0 mi Calm Calm - 0.00 in Rain Light Rain
9:56 PM 37.2 °F - 35.4 °F 93% 29.96 in 10.0 mi Calm Calm - 0.00 in Rain Light Rain
11:18 PM 37.4 °F - 35.6 °F 93% 29.95 in 10.0 mi Calm Calm - N/A Rain Light Rain
11:41 PM 37.4 °F 34.9 °F 35.6 °F 93% 29.95 in 10.0 mi NW 3.5 mph - N/A Rain Light Rain
11:56 PM 37.0 °F - 35.4 °F 94% 29.95 in 10.0 mi Calm Calm - 0.02 in Rain Light Rain